Regional Weather Roundup
Issued by NWS

Home | Current Version | Previous Version | Graphics & Text | Print | Product List | Glossary On
Versions: 1 2 3 4 5 6 7 8 9 10 11 12 13 14 15 16 17 18 19 20 21 22 23 24 25 26 27 28 29 30 31 32 33 34 35 36 37 38 39 40 41 42 43 44 45 46 47 48 49 50
000
ASUS45 KCYS 230410
RWRWY

WYOMING REGIONAL WEATHER ROUNDUP
NATIONAL WEATHER SERVICE CHEYENNE WY
900 PM MST WED FEB 22 2017

NOTE:  "FAIR" INDICATES FEW OR NO CLOUDS BELOW 12,000 FEET
WITH NO SIGNIFICANT WEATHER AND/OR OBSTRUCTIONS TO VISIBILITY.

WYZ001-230500-
YELLOWSTONE NATIONAL PARK

CITY           SKY/WX    TMP DP  RH WIND       PRES   REMARKS
LK YELLOWSTONE   N/A      5   4  95 NW5       29.76F WCI  -4
W YELLOWSTONE  NOT AVBL

$$
WYZ002>013-054>058-071-098>099-230500-
NORTHERN WYOMING

CITY           SKY/WX    TMP DP  RH WIND       PRES   REMARKS
JACKSON        FAIR      19  16  86 N15       29.73S WCI   5
CODY           FLURRIES  29  26  89 N10       29.84S WCI  20
GREYBULL       FAIR      33  27  78 NW17      29.80F WCI  22
WORLAND        FAIR      31  28  89 N7        29.78F WCI  24
SHERIDAN       FLURRIES  33  31  92 SE7       29.88S WCI  27
BUFFALO        LGT SNOW  31  28  89 NW7       29.85S FOG     WCI  24
GILLETTE       CLOUDY    30  27  88 NE12      29.86R WCI  20
HULETT         CLOUDY    32  28  86 MISG      29.87S
NEWCASTLE      FAIR      32  27  80 NW3       29.84R

$$
WYZ014>020-022>026-101>103-230500-
CENTRAL WYOMING

CITY           SKY/WX    TMP DP  RH WIND       PRES   REMARKS
BIG PINEY      CLOUDY    19  15  84 NW10      29.72F WCI   7
PINEDALE       CLOUDY    19  14  79 W3        29.71F
DUBOIS         FAIR      18  12  79 NW7       29.71F WCI   8
LANDER         CLOUDY    32  21  64 NW15      29.72R WCI  22
RIVERTON       FAIR      32  21  64 NE13      29.74S WCI  22
CASPER         CLOUDY    30  27  88 NE15      29.78F WCI  19
DOUGLAS        CLOUDY    36  26  67 NE17      29.79F WCI  26

$$
WYZ021-027>030-104>119-230500-
SOUTHERN WYOMING

CITY           SKY/WX    TMP DP  RH WIND       PRES   REMARKS
EVANSTON       SNOW      23  19  85 W16       29.70F VSB 1/2 WCI  10
FORT BRIDGER   LGT SNOW  26  26 100 E8        29.74F WCI  17
ROCK SPRINGS   LGT SNOW  26  23  88 N8        29.71F VSB 1   WCI  18
DIXON            N/A     29  27  90 E3        29.68F
RAWLINS        SNOW      27  25  92 E7        29.73R VSB 1/2 WCI  19
SARATOGA       LGT SNOW  27  27 100 CALM      29.72F
LARAMIE        SNOW      25  23  92 NE8       29.73F VSB 1/2 WCI  16
CHEYENNE       LGT SNOW  30  27  88 N7        29.78F FOG     WCI  23
TORRINGTON     CLOUDY    38  27  64 SW5       29.82R WCI  34
PINE BLUFFS    CLOUDY    36  25  64 N9        29.79R WCI  29

$$



USA.gov is the U.S. government's official web portal to all federal, state and local government web resources and services.